Location: Stanley
(44.2150°N, 114.9367°W)
Time: 20:13:04
(UTC+00:00)

BlueWalker 3 - Visible Passes

Search period start: 09 December 2022 00:00
Search period end: 19 December 2022 00:00
Orbit: 501 x 518 km, 53.2° (Epoch: 09 December)

Date Brightness Start Highest point End Pass type
(mag) Time Alt. Az. Time Alt. Az. Time Alt. Az.
09 Dec 2.3 01:20:35 10° NW 01:24:21 46° NNE 01:26:07 26° E visible
09 Dec 4.5 02:59:26 10° WNW 03:00:59 20° W 03:00:59 20° W visible
10 Dec 2.2 01:02:09 10° NW 01:05:57 48° NNE 01:09:05 14° E visible
10 Dec 3.8 02:41:03 10° WNW 02:43:58 30° WSW 02:43:58 30° WSW visible
11 Dec 2.2 00:43:43 10° NW 00:47:33 50° NNE 00:51:21 10° ESE visible
11 Dec 3.7 02:22:39 10° WNW 02:26:03 29° SW 02:27:14 24° SSW visible
12 Dec 2.1 00:25:17 10° NW 00:29:08 53° NNE 00:32:57 10° ESE visible
12 Dec 4.0 02:04:17 10° WNW 02:07:37 27° SW 02:10:55 10° SSE visible
13 Dec 4.2 01:45:54 10° WNW 01:49:10 26° SW 01:52:24 10° S visible
14 Dec 4.4 01:27:31 10° WNW 01:30:42 24° SW 01:33:52 10° S visible
15 Dec 4.6 01:09:08 10° W 01:12:14 23° SW 01:15:19 10° S visible
16 Dec 4.9 00:50:45 10° W 00:53:45 21° SW 00:56:44 10° S visible
17 Dec 5.0 00:32:23 10° W 00:35:17 20° SW 00:38:09 10° S visible
